Location: East Horndon
(51.5667°N, 0.3500°E)
Time: 09:03:37
(UTC+00:00)

Cosmos 2322 - Pass Details

Date: 08 November 2025
Orbit: 841 x 852 km, 71.0° (Epoch: 11 December)

Event Time Altitude Azimuth Distance (km) Brightness Sun altitude
Exits shadow 04:49:46 14° 208° (SSW) 2,181 5.6 -21.1°
Maximum altitude 04:54:41 89° 122° (ESE) 853 3.6 -20.3°
Drops below altitude 10° 05:00:23 10° 31° (NNE) 2,475 6.5 -19.4°
Sets 05:02:50 0° 31° (NNE) 3,412 7.2 -19.1°
